Regional Weather Roundup
Issued by NWS Sioux Falls, SD

Home | Current Version | Previous Version | Text Only | Print | Product List | Glossary On
Versions: 1 2 3 4 5 6 7 8 9 10 11 12 13 14 15 16 17 18 19 20 21 22 23 24 25 26 27 28 29 30 31 32 33 34 35 36 37 38 39 40 41 42 43 44 45 46 47 48 49 50
000
ASUS43 KFSD 070910
RWRFSD

WEATHER ROUNDUP FOR SE SOUTH DAKOTA/SW MINNESOTA/NW IOWA
NATIONAL WEATHER SERVICE SIOUX FALLS SD
400 AM CDT TUE JUL 07 2015

NOTE: "FAIR" INDICATES FEW OR NO CLOUDS BELOW 12,000 FEET WITH NO
SIGNIFICANT WEATHER AND OR OBSTRUCTIONS TO VISIBILITY.


SDZ038>040-050-052>070-071000-
SOUTHEAST SOUTH DAKOTA

CITY           SKY/WX    TMP DP  RH WIND       PRES   REMARKS
BROOKINGS      CLEAR     50  45  81 N6        30.18R
CHAMBERLAIN    CLEAR     56  54  91 E3        30.18R
HURON          CLEAR     52  52 100 W3        30.17R FOG
MADISON        FAIR      50  50 100 N3        30.17R
MITCHELL       CLEAR     55  54  96 NW5       30.18R FOG
SIOUX FALLS    CLEAR     52  49  89 N3        30.16R
WINNER         FAIR      58  53  84 CALM      30.18S
YANKTON        CLEAR     54  48  82 NW6       30.15S
$$

MNZ071-072-080-081-089-090-097-098-071000-
SOUTHWEST MINNESOTA

CITY           SKY/WX    TMP DP  RH WIND       PRES   REMARKS
FAIRMONT       CLEAR     52  45  76 NW9       30.10S
JACKSON        PTCLDY    50  46  87 NW7       30.13S
LUVERNE        CLEAR     54  48  82 N5        30.15S
MARSHALL       CLEAR     50  45  81 NW6       30.14R
PIPESTONE      CLEAR     52  46  82 CALM      30.16R
REDWOOD FALLS  CLEAR     51  47  86 N7        30.13R
TRACY          CLEAR     51  49  93 NW6       30.15R
WINDOM         CLEAR     48  46  93 NW5       30.14R
WORTHINGTON    CLEAR     48  45  87 NW7       30.14S
$$

IAZ001>003-012>014-020>022-031-032-NEZ013-014-SDZ071-071000-
NORTHWEST IOWA

CITY           SKY/WX    TMP DP  RH WIND       PRES   REMARKS
CHEROKEE       CLEAR     53  50  92 N3        30.13S
DENISON        CLEAR     55  50  82 N10       30.08S
ESTHERVILLE    CLEAR     50  46  86 N9        30.11R
LE MARS          N/A     52  52 100 NE5       30.15F
ORANGE CITY    CLEAR     52  48  87 N7        30.14S
SHELDON        CLEAR     48  48 100 CALM      30.15R
SIOUX CITY     CLEAR     56  51  84 N6        30.13F
SPENCER        CLEAR     48  44  86 NW7       30.14R
STORM LAKE     CLEAR     52  48  87 N10       30.11F
$$

ABBREVIATIONS USED IN REMARKS
   TC - TEMPERATURE IN CELSIUS
  WCI - WIND CHILL INDEX
   HX - HEAT INDEX
  VSB - VISIBILITY



USA.gov is the U.S. government's official web portal to all federal, state and local government web resources and services.